[[{"header":{"parameterUnit":"m.s-1","parameterCategory":1,"la1":30.2991,"la2":30.254,"lo1":-89.0895,"lo2":-89.0444,"dy":0.0017,"dx":0.0017,"nx":28,"ny":28,"refTime":"2024-06-07T21:00:00:Z","depth":0,"parameterNumber":2,"parameterNumberName":"U-component_of_WINDS"},"data":[0,0,0,0,0,0,0,0,0,0,0,0,0,0,0,0,0,0,0,0,0,0,0,0,0,0,0,0,0,0,0,0,0,0,0,0,0,0,0,0,0,0,0,0,0,0,0,0,0,0,0,0,0,0,0,0,0,0,-3.3794,-3.3795,0,-3.3815,-3.3815,-3.3815,-3.3672,-3.3668,-3.3663,-3.366,-3.3683,-3.3687,-3.3691,0,0,0,0,0,0,0,0,0,0,0,0,0,-3.3634,-3.3638,-3.3794,-3.3795,-3.3795,-3.3814,-3.3815,-3.3815,-3.3672,-3.3667,-3.3662,-3.3658,-3.3681,-3.3686,-3.3692,0,0,0,0,0,0,0,0,0,0,0,0,0,-3.3684,-3.3639,-3.3794,-3.3726,-3.372,-3.3814,-3.3815,-3.3815,-3.3673,-3.3667,-3.3661,-3.3656,-3.368,-3.3686,-3.3692,-3.3854,0,0,-3.3712,-3.3715,0,0,0,0,0,0,0,0,-3.3681,-3.369,-3.3736,-3.3731,-3.3724,-3.3734,-3.3766,-3.3828,-3.3675,-3.3691,-3.366,-3.3653,-3.3705,-3.3709,-3.3726,-3.3855,-3.3856,-3.3713,-3.3717,-3.372,-3.3722,0,0,0,0,0,0,0,-3.3678,-3.3688,-3.3802,-3.3737,-3.373,-3.3695,-3.3695,-3.3778,-3.3732,-3.3689,-3.3679,-3.3683,-3.3701,-3.372,-3.3726,-3.3856,-3.3713,-3.3719,-3.3723,-3.3725,-3.4119,-3.4125,0,0,0,0,0,0,-3.3684,-3.3686,-3.3802,-3.3803,-3.3687,-3.3703,-3.3703,-3.3737,-3.3731,-3.3724,-3.3688,-3.3676,-3.3712,-3.3718,-3.3726,-3.3915,-3.372,-3.3726,-3.373,-3.4113,-3.4121,-3.4128,0,0,0,0,0,0,-3.3681,-3.3695,-3.3801,-3.3742,-3.3753,-3.3712,-3.3751,-3.3741,-3.376,-3.373,-3.3721,-3.3717,-3.3707,-3.3717,-3.3823,-3.3914,-3.3729,-3.3735,-3.4105,-3.4115,-3.4124,-3.4295,0,0,0,0,0,0,-3.3677,-3.3695,-3.3756,-3.3744,-3.3756,-3.3898,-3.3757,-3.3746,-3.3772,-3.3756,-3.3754,-3.3748,-3.3703,-3.3814,-3.383,-3.3919,-3.374,-3.4097,-3.4109,-3.4121,-3.4281,-3.4309,-3.4333,0,0,0,0,0,-3.3671,-3.3804,-3.376,-3.3774,-3.3831,-3.3903,-3.391,-3.3856,-3.378,-3.3841,-3.3821,-3.3748,-3.3901,-3.3826,-3.3843,-3.3936,-3.4091,-3.4106,-3.412,-3.4269,-3.4304,-3.4333,0,0,0,0,0,0,-3.3828,-3.3801,-3.3752,-3.3884,-3.3897,-3.3879,-3.3954,-3.3894,-3.393,-3.3914,-3.3845,-3.3846,-3.3964,-3.396,-3.3877,-3.4092,-3.3983,-3.4001,-3.409,-3.4123,-3.4149,-3.4148,-3.3745,0,0,0,0,0,-3.3877,-3.3937,-3.3911,-3.403,-3.4039,-3.3996,-3.4025,-3.3982,-3.3993,-3.3998,-3.3986,-3.4,-3.4051,-3.4087,-3.4132,-3.4279,-3.4277,-3.4351,-3.4377,-3.4399,-3.4417,-3.4494,-3.4527,-3.4176,-3.4176,-3.4175,0,0,-3.3981,-3.3974,-3.4016,-3.4061,-3.4066,-3.4131,-3.4002,-3.4075,-3.4123,-3.4009,-3.4109,-3.4101,-3.4112,-3.424,-3.4296,-3.424,-3.4513,-3.4418,-3.4435,-3.4441,-3.4513,-3.4546,-3.4576,-3.4186,-3.4184,-3.4182,0,0,-3.4203,-3.4203,-3.4303,-3.431,-3.4319,-3.4289,-3.4313,-3.4304,-3.4294,-3.4393,-3.431,-3.4365,-3.4455,-3.4466,-3.4484,-3.4709,-3.4644,-3.4726,-3.4864,-3.4941,-3.4968,-3.4992,-3.5074,-3.5104,-3.4743,-3.4744,-3.4744,0,-3.4331,-3.4424,-3.4362,-3.4441,-3.4464,-3.4363,-3.4464,-3.4474,-3.4498,-3.4516,-3.4453,-3.4563,-3.4564,-3.4693,-3.4748,-3.4765,-3.4791,-3.4727,-3.4969,-3.4993,-3.5015,-3.5091,-3.5122,-3.4753,-3.4752,-3.4751,-3.475,0,-3.4581,-3.4647,-3.4727,-3.4751,-3.4783,-3.4873,-3.4824,-3.4864,-3.4817,-3.4795,-3.4897,-3.4893,-3.4937,-3.4964,-3.492,-3.5087,-3.5052,-3.4981,-3.487,-3.5059,-3.513,-3.5159,-3.4768,-3.4764,-3.4761,-3.4759,0,0,-3.4903,-3.4892,-3.4922,-3.4932,-3.4934,-3.4984,-3.5069,-3.5111,-3.5146,-3.5166,-3.5236,-3.5314,-3.5247,-3.5267,-3.5223,-3.5291,-3.5471,-3.521,-3.5209,-3.526,-3.5655,-3.571,-3.5745,-3.5426,-3.5432,-3.5436,-3.5655,0,-3.5121,-3.5265,-3.5211,-3.536,-3.542,-3.5325,-3.5399,-3.5409,-3.539,-3.5439,-3.5417,-3.5474,-3.5381,-3.5393,-3.5455,-3.5436,-3.5549,-3.5419,-3.5492,-3.5496,-3.5494,-3.5782,-3.584,-3.6047,-3.5682,-3.5687,-3.569,0,-3.5393,-3.5424,-3.5578,-3.557,-3.5593,-3.5661,-3.5694,-3.5742,-3.5751,-3.5732,-3.5755,-3.5696,-3.5779,-3.5668,-3.5782,-3.5695,-3.5721,-3.5716,-3.5723,-3.5729,-3.5605,-3.5797,-3.6111,-3.6143,-3.5733,-3.5729,-3.5726,0,-3.5614,-3.5693,-3.5796,-3.5807,-3.5799,-3.5849,-3.5849,-3.5851,-3.588,-3.5909,-3.5927,-3.5966,-3.5988,-3.602,-3.5973,-3.5896,-3.6095,-3.5979,-3.6082,-3.6084,-3.613,-3.6128,-3.6454,-3.6145,-3.6145,-3.6144,-3.6144,0,-3.5863,-3.5962,-3.5895,-3.5958,-3.6066,-3.6003,-3.6111,-3.61,-3.6103,-3.6163,-3.6083,-3.6141,-3.6076,-3.6128,-3.6092,-3.6193,-3.6203,-3.6191,-3.6181,-3.6199,-3.6201,-3.6216,-3.6201,-3.6152,-3.6151,-3.6149,-3.6148,0,-3.6128,-3.6087,-3.6193,-3.6177,-3.6175,-3.6255,-3.6241,-3.63,-3.6274,-3.6351,-3.6366,-3.6327,-3.6384,-3.634,-3.6397,-3.6372,-3.6505,-3.6474,-3.6503,-3.6494,-3.66,-3.6591,-3.6949,-3.6993,-3.6656,-3.6659,-3.6662,0,-3.629,-3.6364,-3.6355,-3.6389,-3.6393,-3.6449,-3.6477,-3.6418,-3.6451,-3.6467,-3.6523,-3.6573,-3.661,-3.6706,-3.6683,-3.6726,-3.6696,-3.6818,-3.6702,-3.6718,-3.6698,-3.6695,-3.6702,-3.6842,-3.6846,-3.6849,-3.6852,0,-3.6583,-3.6559,-3.6602,-3.6639,-3.6675,-3.6701,-3.6721,-3.6753,-3.6693,-3.6734,-3.6791,-3.6819,-3.6876,-3.6928,-3.6962,-3.6961,-3.6898,-3.6889,-3.6915,-3.6935,-3.6949,-3.6943,-3.6568,-3.6881,-3.6878,-3.6876,-3.6874,-3.6873,-3.6802,-3.6863,-3.6866,-3.6917,-3.6926,-3.6946,-3.7,-3.6981,-3.7027,-3.7069,-3.7031,-3.71,-3.7107,-3.7146,-3.7154,-3.7207,-3.7156,-3.7194,-3.7204,-3.7215,-3.723,-3.6939,-3.7213,-3.7212,-3.7211,-3.721,-3.721,0,-3.709,-3.7088,-3.7135,-3.7165,-3.7206,-3.7141,-3.7159,-3.7198,-3.7259,-3.727,-3.7308,-3.7374,-3.7423,-3.7403,-3.7446,-3.7493,-3.7465,-3.7506,-3.7503,-3.7504,-3.7272,-3.7246,-3.7529,-3.7528,-3.7528,-3.7528,-3.7528,-3.7528,-3.7246,-3.7345,-3.7322,-3.7425,-3.7421,-3.7488,-3.7504,-3.7523,-3.7532,-3.7608,-3.7648,-3.7635,-3.7634,-3.7677,-3.7719,-3.7712,-3.7732,-3.7784,-3.7767,-3.7552,-3.752,-3.749,-3.7465,-3.7789,-3.7789,-3.7994,-3.7996,-3.7998]},{"header":{"parameterUnit":"m.s-1","parameterCategory":1,"la1":30.2991,"la2":30.254,"lo1":-89.0895,"lo2":-89.0444,"dy":0.0017,"dx":0.0017,"nx":28,"ny":28,"refTime":"2024-06-07T21:00:00:Z","depth":0,"parameterNumber":3,"parameterNumberName":"V-component_of_WINDS"},"data":[0,0,0,0,0,0,0,0,0,0,0,0,0,0,0,0,0,0,0,0,0,0,0,0,0,0,0,0,0,0,0,0,0,0,0,0,0,0,0,0,0,0,0,0,0,0,0,0,0,0,0,0,0,0,0,0,0,0,-2.0149,-2.0149,0,-2.0162,-2.0162,-2.0163,-2.0138,-2.0137,-2.0136,-2.0135,-2.0149,-2.015,-2.0151,0,0,0,0,0,0,0,0,0,0,0,0,0,-2.0102,-2.0103,-2.0149,-2.0149,-2.015,-2.0162,-2.0162,-2.0163,-2.0138,-2.0137,-2.0136,-2.0135,-2.0148,-2.015,-2.0151,0,0,0,0,0,0,0,0,0,0,0,0,0,-2.012,-2.0103,-2.0149,-2.0139,-2.0138,-2.0162,-2.0162,-2.0163,-2.0138,-2.0137,-2.0135,-2.0134,-2.0148,-2.0149,-2.0151,-2.0186,0,0,-2.0156,-2.0157,0,0,0,0,0,0,0,0,-2.0119,-2.0121,-2.014,-2.014,-2.0139,-2.0147,-2.0151,-2.0171,-2.0138,-2.0138,-2.0135,-2.0134,-2.0149,-2.0151,-2.0156,-2.0187,-2.0187,-2.0156,-2.0157,-2.0158,-2.0159,0,0,0,0,0,0,0,-2.0117,-2.0121,-2.0154,-2.014,-2.014,-2.0133,-2.0134,-2.0154,-2.015,-2.0138,-2.0136,-2.0138,-2.0148,-2.0154,-2.0156,-2.0188,-2.0156,-2.0158,-2.0159,-2.016,-2.0246,-2.0247,0,0,0,0,0,0,-2.0118,-2.012,-2.0154,-2.0155,-2.0125,-2.0135,-2.0136,-2.0146,-2.015,-2.0149,-2.0139,-2.0137,-2.0152,-2.0154,-2.0156,-2.0196,-2.0158,-2.016,-2.0161,-2.0245,-2.0246,-2.0248,0,0,0,0,0,0,-2.0117,-2.0121,-2.0153,-2.0137,-2.014,-2.0137,-2.0148,-2.0147,-2.0152,-2.0151,-2.015,-2.0146,-2.0151,-2.0154,-2.0178,-2.0196,-2.016,-2.0162,-2.0243,-2.0245,-2.0247,-2.0277,0,0,0,0,0,0,-2.0116,-2.0121,-2.0134,-2.0137,-2.0141,-2.0176,-2.0149,-2.0148,-2.0155,-2.0152,-2.0157,-2.0156,-2.015,-2.0176,-2.018,-2.0198,-2.0163,-2.0242,-2.0244,-2.0246,-2.0275,-2.028,-2.0284,0,0,0,0,0,-2.0114,-2.0143,-2.0135,-2.014,-2.0159,-2.0177,-2.0179,-2.0172,-2.0157,-2.017,-2.0169,-2.0156,-2.0194,-2.0179,-2.0183,-2.0202,-2.024,-2.0243,-2.0246,-2.0272,-2.0279,-2.0284,0,0,0,0,0,0,-2.0143,-2.0143,-2.0135,-2.0166,-2.0171,-2.0173,-2.0189,-2.0179,-2.0189,-2.0186,-2.0176,-2.0177,-2.0204,-2.0205,-2.0189,-2.0235,-2.0215,-2.0218,-2.0233,-2.0239,-2.0244,-2.0243,-2.0165,0,0,0,0,0,-2.0153,-2.0168,-2.0167,-2.0195,-2.0198,-2.0193,-2.0201,-2.0194,-2.02,-2.0202,-2.0203,-2.0209,-2.0222,-2.0231,-2.0243,-2.0275,-2.0275,-2.029,-2.0295,-2.0299,-2.0302,-2.0317,-2.0323,-2.0257,-2.0257,-2.0257,0,0,-2.0174,-2.0176,-2.0186,-2.02,-2.0204,-2.0219,-2.0196,-2.0213,-2.0224,-2.0205,-2.0228,-2.0229,-2.0234,-2.0262,-2.0275,-2.0265,-2.032,-2.0302,-2.0306,-2.0307,-2.0321,-2.0327,-2.0333,-2.0259,-2.0259,-2.0258,0,0,-2.0219,-2.0223,-2.0245,-2.0249,-2.0254,-2.0251,-2.0256,-2.0259,-2.0258,-2.0281,-2.0266,-2.0279,-2.0302,-2.0306,-2.0311,-2.0357,-2.0345,-2.0361,-2.0386,-2.0401,-2.0407,-2.0411,-2.0426,-2.0432,-2.0364,-2.0364,-2.0364,0,-2.0244,-2.0267,-2.0258,-2.0276,-2.0282,-2.0265,-2.0286,-2.0291,-2.03,-2.0305,-2.0293,-2.032,-2.0323,-2.0351,-2.0362,-2.0367,-2.0372,-2.036,-2.0407,-2.0411,-2.0415,-2.0429,-2.0435,-2.0366,-2.0366,-2.0366,-2.0366,0,-2.0296,-2.0312,-2.0329,-2.0338,-2.0346,-2.0366,-2.0359,-2.0369,-2.0361,-2.0359,-2.0381,-2.0384,-2.0395,-2.0401,-2.0395,-2.0428,-2.0421,-2.0408,-2.0387,-2.0424,-2.0436,-2.0442,-2.0369,-2.0368,-2.0367,-2.0367,0,0,-2.0361,-2.0363,-2.0369,-2.0372,-2.0376,-2.0388,-2.0407,-2.0417,-2.0425,-2.0432,-2.0446,-2.0465,-2.0453,-2.0459,-2.0452,-2.0466,-2.0499,-2.0451,-2.0451,-2.0459,-2.0534,-2.0543,-2.055,-2.0492,-2.0493,-2.0494,-2.0533,0,-2.0405,-2.0436,-2.0428,-2.0459,-2.0473,-2.0456,-2.0472,-2.0476,-2.0474,-2.0485,-2.0482,-2.0495,-2.0479,-2.0482,-2.0495,-2.0493,-2.0514,-2.049,-2.0504,-2.0505,-2.0502,-2.0556,-2.0566,-2.0604,-2.0539,-2.0539,-2.054,0,-2.0461,-2.0468,-2.0501,-2.0501,-2.0506,-2.0521,-2.0528,-2.054,-2.0543,-2.0541,-2.0546,-2.0537,-2.0554,-2.0533,-2.0557,-2.054,-2.0546,-2.0546,-2.0547,-2.0547,-2.0524,-2.0557,-2.0616,-2.0621,-2.0548,-2.0547,-2.0547,0,-2.0502,-2.0521,-2.0542,-2.0545,-2.0547,-2.0557,-2.0558,-2.056,-2.0567,-2.0574,-2.0577,-2.0587,-2.0592,-2.0599,-2.0592,-2.0578,-2.0616,-2.0595,-2.0613,-2.0613,-2.0621,-2.0621,-2.068,-2.0627,-2.0627,-2.0627,-2.0627,0,-2.0552,-2.0572,-2.0561,-2.0574,-2.0595,-2.0585,-2.0607,-2.0606,-2.0608,-2.062,-2.0607,-2.0618,-2.0608,-2.0619,-2.0613,-2.0633,-2.0635,-2.0633,-2.0631,-2.0634,-2.0634,-2.0637,-2.0633,-2.0628,-2.0628,-2.0628,-2.0627,0,-2.0602,-2.0596,-2.0618,-2.0616,-2.0616,-2.0632,-2.0631,-2.0642,-2.0639,-2.0654,-2.0657,-2.0652,-2.0663,-2.0657,-2.0669,-2.0665,-2.069,-2.0685,-2.0688,-2.0686,-2.0705,-2.0702,-2.0767,-2.0775,-2.0717,-2.0718,-2.0718,0,-2.0634,-2.0648,-2.0648,-2.0655,-2.0656,-2.0668,-2.0674,-2.0664,-2.0671,-2.0675,-2.0686,-2.0696,-2.0704,-2.0723,-2.072,-2.0729,-2.0723,-2.0745,-2.0724,-2.0726,-2.0722,-2.072,-2.0721,-2.0749,-2.075,-2.075,-2.0751,0,-2.0689,-2.0685,-2.0694,-2.0701,-2.0708,-2.0714,-2.0719,-2.0725,-2.0715,-2.0723,-2.0734,-2.074,-2.0752,-2.0762,-2.0769,-2.0769,-2.0758,-2.0757,-2.0762,-2.0764,-2.0765,-2.0763,-2.0698,-2.0756,-2.0755,-2.0755,-2.0755,-2.0754,-2.073,-2.0742,-2.0743,-2.0753,-2.0755,-2.0759,-2.0769,-2.0766,-2.0775,-2.0783,-2.0777,-2.079,-2.0792,-2.08,-2.0802,-2.0812,-2.0803,-2.081,-2.0811,-2.0813,-2.0815,-2.0764,-2.0813,-2.0813,-2.0813,-2.0813,-2.0813,0,-2.0784,-2.0784,-2.0793,-2.0799,-2.0806,-2.0794,-2.0798,-2.0805,-2.0817,-2.0819,-2.0826,-2.0838,-2.0848,-2.0845,-2.0853,-2.0861,-2.0856,-2.0863,-2.0862,-2.0862,-2.0823,-2.0818,-2.0867,-2.0867,-2.0867,-2.0867,-2.0867,-2.0867,-2.0813,-2.0832,-2.0827,-2.0846,-2.0845,-2.0857,-2.086,-2.0863,-2.0865,-2.0879,-2.0886,-2.0884,-2.0884,-2.0891,-2.0899,-2.0898,-2.0901,-2.091,-2.0907,-2.087,-2.0865,-2.086,-2.0855,-2.0911,-2.0911,-2.0945,-2.0945,-2.0946]}]]